Notices

What's New in latest Release from April 7th, 2021:

- Updated Glossary, including Speed of Maximum Gust, and Total Hourly Precipitation

- Updated national and regional climate services offices contacts and prices information

- Addition of station inventory lists for 1981-2010, 1971-2000, and 1961-1990 Normals.

If you haven't already, please take our survey and provide feedback about our website: https://eccc.sondage-survey.ca/f/LanguageSelection.aspx?s=442ca660-fcf1-47c0-95a9-59707d6fd709

Hourly Data Report for February 25, 2003

TORONTO CITY
ONTARIO

43°40'00.000" N
79°24'00.000" W
112.50 m
6158355
71508
XTO

Download Data

Hourly Data (February 2003)
Hourly Data Report for February 25, 2003
TIME
LST
Temp Definition
°C
Dew Point Definition
°C
Rel Hum Definition
%
Precip. Amount Definition
mm

Wind Dir Definition
10's deg

Wind Spd Definition
km/h
Visibility Definition
km
Stn Press Definition
kPa
Hmdx Definition


Wind Chill Definition


Weather Definition


00:00 -12.3 -16.2 73   LegendMM LegendMM LegendMM 101.00     LegendNANA
01:00 -12.6 -16.7 71   LegendMM LegendMM LegendMM 101.06     LegendNANA
02:00 -13.2 -17.1 72   LegendMM LegendMM LegendMM 101.14     LegendNANA
03:00 -13.8 -17.5 74   LegendMM LegendMM LegendMM 101.24     LegendNANA
04:00 -14.1 -17.7 74   LegendMM LegendMM LegendMM 101.34     LegendNANA
05:00 -14.4 -17.8 75   LegendMM LegendMM LegendMM 101.45     LegendNANA
06:00 -14.8 -18.2 75   LegendMM LegendMM LegendMM 101.55     LegendNANA
07:00 -15.7 -19.2 74   LegendMM LegendMM LegendMM 101.64     LegendNANA
08:00 -14.9 -19.6 67   LegendMM LegendMM LegendMM 101.73     LegendNANA
09:00 -12.2 -18.3 60   LegendMM LegendMM LegendMM 101.78     LegendNANA
10:00 -10.7 -19.0 50   LegendMM LegendMM LegendMM 101.81     LegendNANA
11:00 -9.8 -17.5 53   LegendMM LegendMM LegendMM 101.81     LegendNANA
12:00 -8.0 -16.2 52   LegendMM LegendMM LegendMM 101.81     LegendNANA
13:00 -7.8 -16.7 49   LegendMM LegendMM LegendMM 101.75     LegendNANA
14:00 -7.8 -18.0 44   LegendMM LegendMM LegendMM 101.69     LegendNANA
15:00 -8.6 -16.5 53   LegendMM LegendMM LegendMM 101.69     LegendNANA
16:00 -8.9 -15.5 59   LegendMM LegendMM LegendMM 101.71     LegendNANA
17:00 -8.7 -15.8 56   LegendMM LegendMM LegendMM 101.69     LegendNANA
18:00 -9.1 -17.7 50   LegendMM LegendMM LegendMM 101.68     LegendNANA
19:00 -9.9 -17.3 55   LegendMM LegendMM LegendMM 101.68     LegendNANA
20:00 -10.5 -17.3 57   LegendMM LegendMM LegendMM 101.68     LegendNANA
21:00 -11.5 -17.6 61   LegendMM LegendMM LegendMM 101.65     LegendNANA
22:00 -12.0 -17.7 63   LegendMM LegendMM LegendMM 101.62     LegendNANA
23:00 -12.7 -18.4 62   LegendMM LegendMM LegendMM 101.59     LegendNANA

Notes on Data Quality.

Legend

  • E = Estimated
  • M = Missing
  • NA = Not Available*
  • [empty] = Indicates an unobserved value
Date modified: